Wind_Speed
5 5 5 4 5 4 4 4 3 3 3 2 2 2 2 2 2 2 2 3 3 3 4 5 6 6 7 8 9 10 12 13 13 15 14 6 1 2 3 4 6 8 9 10 10 9 7 7 8 8 7 7 5 5 6 5 7 6 3 3 4 4 4 4 6 6 1 5 5 3 5 6 7 6 7 9 11 14 18 23 25 25 27 29 29 27 26 25
5 5 5 5 4 4 4 4 4 4 3 3 3 3 3 3 3 3 3 3 4 4 5 6 7 8 8 9 10 12 14 14 17 17 7 1 2 4 4 4 4 7 9 10 10 9 8 7 8 9 8 6 4 5 5 5 7 5 2 3 5 4 3 4 7 7 5 8 8 6 5 7 9 7 6 8 11 11 14 21 20 23 28 29 27 24 22 21
6 6 6 5 5 5 5 5 5 5 4 5 4 4 4 5 4 4 5 5 6 6 7 8 8 9 10 11 12 13 14 17 19 11 3 4 6 5 4 4 4 5 8 9 9 9 8 7 7 9 9 6 4 5 5 5 6 5 4 5 7 6 4 6 10 10 11 13 11 10 8 9 12 10 6 7 11 11 14 20 17 17 24 24 21 22 20 20
7 7 7 6 6 6 6 6 6 6 6 6 6 6 6 6 6 6 7 7 8 8 8 9 10 11 12 13 13 13 15 16 12 5 8 4 10 7 5 4 3 3 7 10 11 10 9 9 8 8 9 6 4 5 5 7 6 4 6 7 6 3 5 9 14 15 15 14 12 10 10 11 12 10 9 8 8 10 16 21 20 20 24 23 19 23 24 23
8 8 8 8 8 7 8 7 7 8 8 8 8 8 8 8 9 9 9 9 10 10 10 11 12 13 13 14 14 14 13 10 2 7 5 8 13 10 7 6 4 2 4 8 11 11 10 9 9 9 8 5 4 4 5 10 8 4 8 13 9 4 6 8 10 13 14 13 12 8 9 11 10 11 13 11 8 13 21 25 25 25 29 28 26 28 30 29
9 9 9 9 9 9 9 9 9 9 9 9 9 10 10 10 11 11 11 11 11 12 12 12 13 13 14 15 15 14 9 5 4 5 9 13 15 13 10 8 5 2 2 6 9 11 11 10 9 8 6 4 6 6 5 10 12 7 9 13 13 10 10 11 8 10 12 10 10 9 12 13 11 13 15 16 19 26 33 34 35 35 33 34 33 33 33 31
10 10 10 10 10 10 10 10 10 10 10 10 11 11 11 11 12 12 12 12 13 14 13 14 14 14 15 15 16 14 8 11 14 14 14 15 14 12 10 8 6 4 3 6 8 11 12 12 11 8 6 4 6 8 6 8 11 9 8 8 11 12 15 16 11 12 14 13 14 15 17 19 15 13 11 16 25 36 40 40 41 40 36 35 33 31 30 28
11 11 11 11 11 11 11 11 12 12 12 12 12 12 13 13 13 13 13 14 14 15 15 15 15 16 16 16 17 12 11 17 18 14 11 9 9 8 8 8 7 7 7 7 8 10 12 13 14 10 7 6 6 6 5 7 8 10 13 9 7 10 15 17 15 15 17 18 20 18 19 26 24 15 14 23 34 42 41 40 38 35 32 31 29 27 26 27
12 13 13 13 13 13 13 13 13 14 14 14 14 14 15 15 15 15 15 16 16 16 17 16 17 18 17 18 17 11 14 19 13 8 7 6 8 9 10 10 10 11 10 10 9 11 12 13 15 13 9 6 7 6 6 7 6 10 13 10 8 11 13 15 15 16 17 20 18 14 19 28 23 15 20 30 35 34 29 29 28 27 28 28 28 27 27 27
14 14 14 14 14 14 14 15 15 15 15 16 16 16 16 17 17 17 17 18 18 18 18 17 18 18 18 19 14 9 16 16 10 10 10 11 13 13 14 14 14 13 12 12 11 13 13 13 13 13 10 6 7 7 7 7 5 3 7 10 13 16 16 15 16 16 15 18 18 14 17 25 16 7 16 19 16 18 18 23 27 25 28 29 28 28 27 28
15 15 15 15 15 15 16 16 16 16 17 17 17 18 18 18 18 18 18 18 19 18 18 18 19 19 19 20 15 14 20 19 15 17 16 17 18 17 17 16 15 14 13 13 13 13 14 14 11 9 7 6 6 6 7 10 7 5 7 10 15 17 18 17 17 17 14 12 15 16 16 22 13 5 20 25 17 18 20 25 29 27 29 30 28 28 26 28
16 16 16 16 16 16 16 16 17 17 17 18 18 19 19 19 19 19 19 19 19 19 18 18 18 18 19 22 24 23 24 21 18 18 18 19 20 20 19 17 16 14 13 13 12 12 13 15 13 10 7 4 3 3 5 7 5 7 7 9 14 13 17 18 15 14 12 6 6 10 10 15 11 13 29 32 24 22 20 25 30 28 29 28 26 27 29 33
16 16 16 16 16 16 16 16 16 17 17 17 18 19 19 19 19 19 19 19 19 18 18 18 18 19 17 19 26 25 21 19 17 17 18 20 20 21 20 18 17 15 15 13 12 12 12 13 13 12 10 6 3 3 2 2 0 7 4 3 10 10 12 9 6 5 6 5 7 9 6 10 10 18 26 22 19 18 16 22 27 27 27 27 28 31 36 40
15 15 15 15 15 15 15 15 15 15 16 16 16 17 17 17 17 17 16 16 16 16 16 16 16 17 15 19 25 24 21 19 17 17 18 19 21 22 21 18 16 15 15 14 14 13 12 12 13 12 11 10 6 5 4 2 1 6 2 2 6 7 7 2 5 4 3 5 12 10 8 10 10 17 18 13 15 15 14 20 22 22 23 27 33 38 42 43
13 13 13 13 13 13 13 12 12 12 12 13 13 14 14 14 14 14 14 14 14 14 14 15 15 13 12 19 23 21 19 16 13 13 13 15 18 20 19 16 14 14 13 14 14 13 11 10 12 9 7 11 9 6 5 2 2 4 4 5 5 5 7 7 3 6 7 4 12 11 7 8 10 15 14 13 14 12 14 20 22 24 25 30 33 37 43 45
10 11 11 10 10 10 9 9 9 8 9 9 10 11 12 12 13 13 13 13 12 12 12 12 13 10 7 14 18 18 17 14 12 13 13 14 16 17 17 14 11 11 12 13 13 12 10 9 10 8 5 7 6 4 4 4 5 4 5 8 6 7 8 7 7 6 6 3 9 12 8 8 9 12 16 17 18 17 19 26 29 29 29 33 33 34 38 41
8 8 8 8 8 7 7 6 5 5 6 7 8 9 11 12 12 12 11 11 10 9 9 9 9 7 9 14 17 17 15 13 11 11 11 12 13 14 14 12 11 11 11 11 10 9 9 10 7 5 5 4 2 2 4 5 7 5 5 7 7 9 9 6 7 3 3 5 8 11 11 13 14 16 22 24 24 24 24 30 33 31 31 34 32 30 30 30
7 6 6 6 5 4 4 4 3 3 5 7 8 9 11 10 10 11 10 8 6 4 4 5 5 3 8 13 14 12 11 11 11 10 11 11 11 11 11 11 10 10 9 8 8 9 9 7 4 3 4 5 4 5 6 8 11 7 4 6 6 7 9 9 9 4 3 7 8 9 13 16 16 17 23 28 27 24 26 29 29 31 34 33 30 29 24 20
5 5 5 4 4 3 3 3 3 4 6 7 9 10 9 9 9 8 6 3 2 3 4 5 7 5 7 10 14 14 15 16 15 16 15 13 11 10 9 9 9 10 9 6 7 10 9 5 4 4 6 8 9 10 13 14 11 6 5 7 9 9 9 11 12 8 7 10 11 13 17 17 16 15 17 24 26 24 30 30 27 30 29 28 32 28 16 13
5 5 4 4 3 3 2 3 4 5 6 7 9 9 7 7 6 3 4 7 9 10 12 12 14 17 18 21 23 22 22 22 20 18 15 12 9 8 9 9 9 10 7 4 6 8 8 6 6 8 11 13 12 13 16 13 7 5 6 9 10 11 12 12 14 10 2 6 11 13 18 18 17 16 15 24 28 26 29 27 26 28 25 28 33 21 8 10
5 5 5 4 4 3 2 3 5 6 8 8 9 8 5 5 4 3 8 14 15 15 18 20 22 24 26 26 26 24 21 18 19 17 13 10 8 7 9 11 8 6 4 3 4 4 6 8 9 13 14 8 4 5 8 9 9 10 9 11 11 10 13 13 14 13 2 3 9 10 17 18 17 19 18 23 25 23 24 22 24 27 28 29 19 6 6 11
7 6 6 5 5 4 4 4 5 7 8 9 9 7 6 7 7 8 9 11 17 20 20 22 26 28 29 29 30 29 20 13 14 13 10 9 10 8 8 10 7 4 4 5 3 2 6 8 11 16 10 1 3 1 2 7 10 11 8 8 9 8 12 12 10 9 1 2 8 10 15 15 17 22 20 21 19 20 24 22 25 31 30 20 5 7 13 17
9 8 8 8 7 6 6 5 6 7 7 8 9 8 8 9 10 12 10 7 14 20 20 22 24 27 27 27 29 26 18 13 10 9 9 9 11 9 8 9 6 3 5 8 8 6 5 6 11 16 7 1 4 3 2 7 7 8 8 8 9 7 8 8 5 2 1 5 9 13 14 12 15 17 13 13 13 18 23 22 30 34 22 12 9 12 15 13
11 10 10 10 9 8 6 6 7 6 6 8 9 9 9 10 11 13 10 5 7 12 18 17 15 17 19 17 17 15 12 11 8 6 9 10 11 8 7 8 6 4 7 12 12 12 8 1 2 8 6 7 11 7 5 8 8 9 8 7 11 11 11 12 7 5 7 8 5 10 12 7 5 3 1 2 5 11 16 21 27 18 6 9 8 8 8 6
12 11 10 10 11 10 8 7 6 4 6 8 8 8 9 10 10 12 9 3 3 6 10 6 3 5 7 6 6 6 6 7 7 7 7 11 13 6 3 6 5 5 10 11 11 13 8 2 3 4 5 8 10 8 9 10 9 8 7 10 16 15 14 15 11 8 8 6 2 7 10 3 2 1 4 4 4 8 13 17 14 4 11 9 8 8 7 8
13 12 11 11 11 10 9 7 5 4 6 7 7 8 9 8 10 11 7 2 2 2 2 1 1 1 2 2 0 4 5 2 4 7 8 12 13 5 1 4 2 3 5 5 5 6 4 2 2 3 5 6 5 8 10 10 8 8 3 7 13 13 12 12 9 6 5 4 2 3 6 6 4 4 6 7 8 11 14 13 4 7 10 9 9 7 9 14
12 11 11 12 12 10 9 7 6 6 6 6 7 7 7 6 8 10 5 3 3 1 2 1 2 3 3 1 4 5 3 1 1 4 9 11 10 6 5 3 2 1 2 1 3 2 3 3 1 2 4 4 5 8 8 9 7 5 1 1 5 7 8 6 5 5 4 6 3 3 5 8 7 3 3 5 7 13 17 11 3 9 10 11 11 12 16 19
14 13 13 14 13 13 12 10 9 7 5 6 7 6 5 6 7 6 3 4 2 2 2 2 3 3 2 6 7 3 2 1 1 2 8 11 9 6 5 5 4 2 4 4 5 1 2 3 3 5 5 5 7 4 3 10 7 2 3 2 1 1 3 2 3 5 3 5 4 4 5 6 8 2 2 2 7 11 11 6 8 11 9 10 14 16 20 22
16 15 15 15 15 15 15 14 11 8 6 5 6 6 6 4 3 3 1 3 1 3 1 1 3 3 3 6 4 0 2 2 1 2 6 7 9 6 2 3 3 2 3 5 7 4 1 1 2 5 5 6 5 1 2 9 6 1 4 3 3 2 1 1 3 3 3 6 5 6 8 7 8 1 3 1 4 6 6 6 8 13 13 15 18 17 19 21
13 12 11 12 12 13 13 12 11 8 6 6 5 4 3 1 1 1 4 3 1 2 2 2 2 1 2 4 1 1 1 1 3 5 4 3 7 6 1 0 2 2 3 4 7 6 1 3 1 5 8 4 3 3 1 2 2 3 4 1 1 2 1 1 2 1 4 7 5 10 13 9 6 1 2 0 1 3 4 4 5 15 19 21 22 20 20 22
10 10 10 10 11 11 10 10 9 7 6 6 4 1 1 1 1 4 5 1 1 1 3 2 1 1 2 2 0 0 1 1 3 5 3 2 4 3 1 1 2 1 2 3 5 4 2 4 2 4 8 4 5 3 2 3 2 2 1 2 2 2 1 2 2 2 5 7 2 5 7 9 8 2 1 2 4 3 2 4 5 13 16 19 22 23 25 26
12 12 12 11 12 11 11 10 8 6 7 6 3 3 2 1 3 4 2 1 1 1 2 1 0 1 1 0 0 1 1 0 2 2 2 1 2 3 3 3 2 2 3 1 2 2 3 5 2 1 4 5 4 2 2 2 2 2 1 0 3 3 2 3 2 2 6 4 1 1 1 6 9 5 5 10 10 4 0 4 8 12 14 17 21 23 26 26
13 13 13 12 12 12 11 10 9 8 7 5 5 4 2 3 4 2 2 2 1 0 2 2 1 2 2 1 1 2 0 1 3 2 2 2 1 2 4 2 2 2 4 1 4 5 3 1 4 2 3 6 8 5 3 2 4 5 4 3 3 2 3 4 3 4 6 2 2 1 1 5 6 4 9 14 8 4 8 11 15 18 18 19 21 24 27 27
15 14 14 13 13 12 11 11 10 8 6 4 6 3 2 5 3 1 3 4 1 1 2 2 1 1 2 2 1 3 2 1 4 2 1 2 1 2 3 2 3 2 0 1 3 3 5 4 3 3 1 7 11 8 2 2 4 5 2 2 3 3 3 5 4 5 7 4 1 2 2 4 3 1 2 5 2 9 15 17 20 20 19 20 23 25 27 28
16 15 15 15 14 13 11 10 10 8 7 7 5 2 5 6 2 1 3 3 1 1 1 2 2 1 3 3 1 2 4 3 3 3 2 3 2 3 3 3 5 4 3 1 1 1 5 7 3 1 1 8 9 4 3 4 1 2 1 1 3 3 4 5 5 5 5 6 4 4 3 4 3 2 4 3 2 12 19 19 19 19 17 20 24 26 27 28
17 16 17 17 16 14 12 11 10 9 12 10 4 5 6 3 1 2 1 1 1 2 1 1 2 3 5 3 1 2 3 3 2 3 3 3 3 4 3 2 5 9 6 4 2 2 4 6 3 4 2 8 9 5 5 4 2 1 2 3 2 1 2 4 4 1 1 6 6 5 6 7 5 5 3 3 7 12 16 16 17 17 17 20 21 21 23 24
18 18 19 19 17 14 13 13 10 12 16 11 5 6 4 2 4 3 2 2 2 3 1 3 2 2 4 3 2 3 3 2 3 3 3 2 3 4 4 3 5 11 11 7 3 3 5 7 4 6 7 8 8 6 4 4 3 3 3 3 1 1 0 2 3 0 3 7 5 6 12 11 6 4 3 7 9 10 10 10 12 13 14 15 15 15 19 23
19 19 20 20 18 16 16 15 13 16 15 9 8 9 4 3 6 5 5 4 1 1 2 5 3 2 4 6 4 3 4 4 3 3 3 3 3 4 4 4 5 10 12 9 3 2 4 7 5 6 8 4 5 3 3 3 4 2 2 1 1 2 3 3 3 2 5 7 5 6 11 10 6 6 3 3 7 8 7 7 9 11 11 11 11 12 17 21
15 14 14 16 17 18 18 16 18 21 14 7 10 10 4 4 6 7 9 6 2 2 4 7 6 3 4 5 4 2 4 5 4 3 4 3 4 5 4 3 4 4 6 6 3 1 2 5 5 1 2 1 4 3 5 4 3 0 1 1 1 2 4 3 2 1 4 7 5 4 6 6 5 3 0 4 7 6 5 7 8 8 9 9 9 10 13 17
10 8 7 9 12 17 20 19 21 19 11 6 9 7 2 2 4 6 9 7 3 3 4 5 7 6 6 5 5 3 3 4 4 4 3 2 4 3 2 1 1 1 0 1 2 1 1 4 6 0 1 2 3 4 5 6 5 3 3 4 3 2 1 1 1 1 3 5 5 4 5 5 2 3 5 7 6 5 6 7 6 6 8 8 8 8 9 13
10 5 4 9 10 16 23 21 16 11 5 5 8 6 3 2 2 2 5 7 7 5 4 3 5 6 4 3 4 2 1 2 3 4 3 2 6 5 4 5 3 1 2 0 1 2 2 3 5 4 3 6 5 2 3 4 3 3 5 6 6 4 3 3 4 4 4 5 5 6 7 4 1 3 5 8 5 4 6 6 5 6 7 7 9 10 11 13
13 3 4 11 11 19 26 16 8 6 4 6 6 5 4 3 3 3 3 4 6 5 3 2 3 5 4 5 6 4 3 3 4 6 5 5 9 7 5 10 6 2 1 1 1 1 0 0 3 5 6 9 7 1 2 2 3 3 3 2 2 3 4 6 6 3 4 6 6 8 9 4 2 2 4 6 5 5 6 6 6 5 5 7 10 12 13 13
12 5 8 13 15 24 23 9 6 7 4 4 4 5 7 4 3 3 2 3 4 3 3 3 4 7 6 6 6 6 5 4 6 9 7 4 5 3 8 11 8 5 3 3 2 2 1 1 3 6 5 7 8 0 3 2 1 2 4 1 3 4 3 4 4 2 2 4 5 6 7 2 2 3 4 6 7 7 6 5 5 5 4 5 7 9 11 12
11 9 11 14 19 26 17 5 6 9 7 7 6 9 10 6 5 5 3 4 4 2 1 2 4 5 4 1 2 3 3 3 6 7 4 2 1 3 7 9 6 2 1 1 1 1 1 2 2 4 4 4 5 2 1 2 2 1 2 1 1 3 5 5 3 2 3 6 8 8 6 1 3 4 5 6 7 6 5 5 4 4 3 3 4 7 9 11
9 7 8 14 23 23 11 3 4 8 9 11 11 12 12 9 7 8 7 7 7 5 3 3 3 4 2 0 1 1 3 3 3 2 1 1 1 2 6 8 5 2 2 2 1 1 2 2 2 5 7 6 6 6 2 1 1 1 1 1 2 2 3 5 5 5 5 5 8 8 5 1 3 5 7 6 6 5 5 5 4 3 2 1 2 5 7 9
6 3 4 9 16 16 8 3 4 6 8 10 9 10 13 12 7 7 9 10 10 11 10 7 4 3 3 4 5 7 7 6 5 3 4 3 1 2 4 6 7 4 2 3 3 1 2 3 4 8 10 9 11 11 4 1 2 5 4 3 5 4 3 3 5 6 5 4 5 6 7 7 4 5 8 4 5 4 4 4 3 3 3 3 2 2 5 7
3 1 3 5 7 9 6 4 5 4 4 6 6 4 8 11 7 5 8 6 4 7 8 5 4 5 5 6 7 8 7 6 6 5 7 6 2 1 1 3 5 5 1 1 3 1 3 4 7 11 13 13 15 13 5 1 5 8 7 7 9 8 7 8 9 8 7 8 7 6 9 11 8 9 13 6 4 5 3 3 4 4 6 6 6 6 5 6
2 1 5 6 4 3 4 4 5 4 3 4 3 2 4 8 7 4 4 1 1 2 2 2 2 1 1 2 2 3 2 3 3 3 2 2 1 1 1 1 4 6 4 1 1 1 3 7 8 10 12 12 11 9 5 4 6 7 8 10 11 12 14 13 13 13 12 11 11 10 13 15 13 13 13 4 4 4 1 1 3 4 5 7 8 9 9 8
4 2 4 6 3 1 1 3 4 4 5 4 3 4 5 8 9 5 2 2 2 1 0 2 1 4 3 1 1 3 4 4 5 3 2 1 1 1 2 2 1 5 7 3 3 1 3 5 3 4 7 7 7 8 8 7 7 8 10 11 13 16 17 15 15 16 17 17 17 17 20 21 15 7 1 4 3 1 2 3 4 5 5 6 8 10 11 11
4 4 4 4 3 3 3 3 4 2 4 3 4 5 4 7 11 7 0 1 5 3 1 2 1 3 2 2 1 4 4 3 5 4 2 2 1 1 1 2 1 3 5 2 2 3 3 2 1 2 4 6 7 9 9 8 8 10 11 13 16 18 17 16 16 15 15 17 19 19 21 18 7 4 6 4 1 2 4 6 7 6 6 7 9 11 13 12
6 6 6 5 3 3 3 2 2 2 2 4 5 4 2 4 7 4 1 2 2 3 2 4 4 4 3 2 2 4 4 4 3 2 3 2 2 0 0 0 1 2 3 1 1 3 3 2 1 2 5 6 7 9 8 6 8 10 12 17 20 18 15 15 15 13 14 16 17 17 15 9 2 6 4 2 2 3 6 8 8 7 7 8 10 13 15 16
7 7 6 5 2 2 4 3 2 3 2 2 4 3 1 1 1 2 3 2 6 5 6 7 5 2 2 4 3 4 6 7 4 1 1 4 6 6 7 7 5 4 2 1 1 2 2 2 2 4 5 5 8 9 4 4 7 10 10 12 16 16 16 16 15 16 18 16 13 10 6 1 4 5 2 2 0 4 8 9 9 10 10 11 13 16 19 22
Wind_Direction
342 347 350 354 354 356 357 359 2 0 4 1 3 1 356 360 358 360 358 358 356 351 348 347 343 340 340 336 335 333 330 328 323 319 317 308 236 294 309 280 251 245 239 224 220 219 219 215 210 206 200 195 204 201 194 187 177 183 206 247 248 256 233 196 212 212 270 292 269 227 210 240 269 280 285 288 268 259 270 271 266 264 264 267 271 276 280 285
326 330 332 336 336 337 339 338 338 337 333 331 330 323 322 320 318 318 320 321 319 322 323 325 325 324 326 326 328 326 325 325 318 313 305 159 34 348 339 318 276 248 235 224 216 217 223 223 218 210 197 198 213 202 202 193 185 202 232 242 246 253 216 186 225 223 227 272 288 283 256 251 269 279 280 278 270 262 270 273 264 261 270 275 277 279 279 281
313 315 316 317 317 317 316 317 318 316 314 314 310 306 305 304 302 300 304 304 305 308 309 312 314 315 317 319 322 322 326 325 315 303 172 95 21 358 339 334 315 260 235 228 216 219 225 225 224 211 201 207 214 200 204 203 201 215 221 244 251 246 236 218 233 235 241 269 288 283 276 268 268 268 260 266 275 270 263 269 263 256 271 281 286 289 283 279
301 302 303 303 303 301 299 299 298 298 299 298 299 299 297 298 295 294 297 297 298 300 303 306 307 309 311 314 317 320 327 323 306 213 155 29 3 350 323 311 319 276 236 233 225 226 226 226 224 207 207 215 210 210 218 211 203 186 201 246 259 232 252 237 237 246 251 266 275 277 283 277 271 264 247 249 276 271 257 265 267 267 281 288 288 291 289 284
293 294 295 295 295 293 292 290 289 289 288 288 291 291 293 294 293 295 295 295 296 296 299 299 301 303 305 308 309 315 326 327 279 171 197 315 331 326 304 285 287 272 236 236 232 231 227 226 221 205 213 225 193 206 225 209 204 203 221 246 258 228 258 253 241 255 259 263 269 269 273 277 276 262 244 232 247 262 267 275 278 281 287 289 286 287 288 287
287 288 289 290 290 289 288 287 286 285 285 286 286 287 289 289 290 292 292 294 294 295 297 295 297 298 300 304 302 307 313 301 278 252 276 300 306 301 287 274 263 266 251 237 235 231 227 221 215 203 209 230 210 216 227 201 206 241 239 239 251 241 248 261 253 261 265 260 258 259 272 279 272 266 251 226 237 260 274 282 285 288 288 287 288 287 287 287
284 285 286 287 287 288 288 287 287 285 286 285 285 286 286 286 287 289 289 291 291 292 294 293 295 295 297 298 296 299 278 271 289 288 290 295 291 287 277 262 249 268 268 248 241 231 229 219 212 205 207 235 221 219 231 206 204 241 259 241 250 250 249 259 261 260 264 259 259 267 279 278 262 266 262 233 247 267 280 286 286 290 290 286 287 286 286 287
283 284 286 287 287 288 287 287 288 287 288 287 287 287 286 286 286 286 287 287 288 289 289 290 291 292 294 293 295 293 263 277 296 295 289 285 281 281 263 250 255 272 269 261 254 241 233 219 215 209 216 236 227 215 215 222 210 223 252 257 254 258 257 263 266 263 264 262 265 269 271 270 265 271 273 256 263 273 281 287 287 286 286 283 283 284 285 287
279 281 283 285 285 286 286 286 287 287 287 287 287 286 286 286 285 286 286 285 286 286 287 289 289 290 291 290 292 281 270 287 300 291 283 275 278 275 262 260 267 272 267 262 255 245 232 223 224 222 233 243 237 231 195 221 226 212 242 267 270 270 270 271 270 265 263 262 260 257 260 267 272 282 275 265 269 276 279 284 285 281 281 282 285 288 288 288
275 277 279 282 283 284 285 286 287 288 288 288 287 287 286 286 285 286 286 286 286 285 286 286 286 288 288 288 286 269 278 291 291 284 286 282 279 272 268 268 272 271 265 262 256 246 239 241 240 231 243 250 240 233 190 213 247 236 264 284 278 276 277 271 269 264 259 261 248 235 257 267 273 286 273 270 274 277 274 280 283 280 281 285 287 291 291 290
273 275 278 280 281 282 284 285 287 288 289 289 290 289 289 289 289 289 289 288 286 285 285 285 285 285 285 284 268 259 280 286 282 285 284 281 278 270 267 265 267 266 261 264 262 255 250 250 244 225 232 231 229 228 219 235 255 309 316 294 280 278 280 266 259 258 247 255 242 227 255 268 268 245 256 265 272 273 274 280 282 280 283 287 290 291 292 290
273 275 277 278 279 281 282 283 285 287 288 289 290 290 291 290 291 291 290 288 286 286 285 283 283 281 283 280 266 266 281 283 279 282 279 278 275 269 265 260 260 258 258 263 262 258 251 247 239 227 232 226 226 231 246 247 253 302 305 290 288 286 286 268 250 251 230 232 225 205 248 264 244 234 253 263 269 273 276 279 281 280 283 287 289 290 289 289
274 274 275 277 278 280 282 284 285 287 287 288 289 289 290 290 291 290 289 288 286 285 283 281 278 277 277 274 273 278 283 279 277 278 276 275 272 268 263 257 256 252 254 255 251 247 242 244 235 229 238 236 234 244 293 33 296 284 275 277 294 287 285 269 226 237 225 209 176 172 254 269 241 246 259 266 269 276 272 271 277 279 281 286 287 287 288 290
273 274 275 277 279 281 283 285 286 288 289 290 291 290 291 292 291 291 290 289 287 285 282 278 273 273 268 268 278 284 282 280 280 276 274 272 269 267 263 259 257 253 253 251 248 241 232 234 226 225 238 236 245 270 285 14 260 278 282 219 272 271 275 268 136 163 239 207 172 179 262 271 266 270 273 277 275 278 270 267 274 275 278 283 284 286 288 291
272 274 275 276 278 281 282 286 288 290 292 293 294 294 295 295 294 295 294 292 289 286 281 275 271 267 264 272 278 283 283 282 281 278 272 266 265 266 266 263 258 252 248 244 242 238 228 218 213 220 239 239 246 268 278 296 255 254 269 254 230 233 263 279 259 215 243 215 171 190 260 266 262 273 280 289 285 282 276 276 277 276 278 279 280 282 286 290
267 268 270 272 273 276 280 284 287 292 294 296 299 300 300 301 301 300 300 297 292 286 279 273 267 254 254 275 277 279 283 285 284 281 274 267 264 264 265 263 255 244 236 234 233 229 216 194 199 214 234 247 241 245 267 283 264 222 233 262 253 254 271 287 288 246 219 182 189 214 256 274 264 275 282 286 289 288 284 283 281 281 280 279 278 278 282 287
255 257 260 263 264 268 274 277 285 294 296 302 306 308 308 307 306 303 303 300 296 290 278 266 259 248 250 266 273 277 282 288 289 285 278 272 265 261 260 254 243 232 221 220 215 201 190 177 186 209 221 243 204 210 255 262 260 235 215 246 252 256 270 283 289 295 167 187 220 229 241 259 265 278 283 284 286 285 280 280 282 283 281 280 280 278 278 282
245 247 249 253 257 262 269 278 292 306 320 321 320 322 317 310 309 306 303 303 300 299 283 247 214 233 252 252 262 277 288 292 292 290 286 276 266 261 253 242 233 214 195 195 186 174 172 168 184 219 220 224 200 204 231 238 250 260 250 262 274 250 248 260 268 299 283 249 251 249 248 257 263 267 276 280 283 281 276 276 278 278 279 281 281 279 280 283
238 236 239 248 251 259 275 300 312 330 342 336 334 336 325 316 315 307 299 301 288 277 280 225 202 239 270 263 268 280 288 288 289 288 281 272 264 252 234 222 209 185 172 172 176 176 171 159 179 218 225 222 212 206 223 237 252 285 298 280 286 276 260 264 267 270 281 279 271 265 267 274 276 270 272 280 284 280 275 275 274 274 277 281 281 281 286 297
236 234 237 245 255 269 292 315 323 335 338 340 349 347 337 334 328 301 289 291 284 277 277 264 250 255 265 272 277 279 280 280 282 279 273 266 253 228 203 185 174 176 180 172 173 176 183 195 195 208 227 231 223 216 230 253 291 313 289 273 273 278 276 274 277 275 243 275 271 266 275 281 282 280 275 277 280 274 271 275 277 277 277 277 280 285 302 310
239 240 242 244 256 268 277 302 316 329 334 343 356 360 5 359 338 305 309 299 292 286 281 279 270 262 265 270 271 270 273 277 275 268 264 253 220 197 183 169 167 188 187 126 118 143 191 218 214 219 234 245 249 235 247 268 283 274 268 276 273 269 275 273 277 283 272 268 272 267 277 283 285 281 271 266 268 270 273 277 279 279 276 274 281 314 329 313
247 249 255 256 256 264 273 295 310 324 338 344 351 0 6 355 335 321 319 298 293 295 288 280 271 263 265 263 259 260 263 269 270 261 252 227 196 191 175 170 193 202 148 135 140 171 209 227 226 229 236 7 32 26 270 258 260 264 261 272 274 271 283 275 263 276 300 267 283 290 288 287 279 273 268 263 259 266 270 267 268 269 268 274 334 9 318 312
253 255 260 263 260 267 278 298 312 323 337 342 343 349 349 343 334 329 326 286 290 299 287 273 264 260 264 263 259 260 254 250 263 262 248 218 190 194 183 180 205 177 154 191 208 223 229 226 230 234 230 196 250 226 232 264 256 246 246 262 273 271 278 274 249 277 359 269 287 301 291 280 270 261 262 267 256 258 263 261 262 264 270 299 339 331 318 319
259 258 261 266 267 271 278 291 306 319 335 340 338 336 336 334 333 335 330 275 278 293 279 270 266 264 270 273 269 261 244 241 254 263 247 218 192 194 195 192 198 188 200 209 218 237 242 107 202 231 212 217 242 232 223 260 261 237 229 245 266 266 264 269 283 332 311 273 286 310 294 277 263 233 124 279 240 251 261 259 259 264 335 360 347 351 356 8
267 267 272 279 277 277 276 282 294 311 330 336 331 327 334 337 340 344 335 276 259 269 263 275 312 277 276 290 283 246 221 228 235 233 221 205 195 183 177 189 201 223 217 211 224 246 252 105 116 198 196 211 230 235 223 233 261 258 215 221 250 266 273 276 293 327 309 275 41 345 314 297 163 117 8 323 267 264 254 248 257 2 47 32 25 26 31 63
268 268 278 286 285 283 280 282 284 299 325 332 329 331 338 344 349 349 341 273 265 254 239 282 56 30 339 337 358 174 183 205 245 232 211 200 194 188 208 174 179 258 218 205 234 260 261 211 206 212 199 191 207 244 231 214 250 272 218 215 245 262 271 277 294 307 294 292 29 10 307 288 255 253 285 279 264 265 256 249 278 41 46 41 43 51 73 86
262 258 267 275 278 278 275 276 276 293 318 323 329 337 343 354 355 351 342 267 276 76 82 105 117 42 6 135 135 147 181 124 81 210 200 199 192 200 241 194 172 248 153 179 262 239 204 202 175 190 190 180 208 247 225 188 225 271 48 187 238 255 262 263 280 264 275 314 306 186 233 276 282 254 249 263 249 252 256 262 1 55 58 63 74 85 88 89
257 254 258 264 267 267 264 265 272 284 297 309 329 336 343 353 348 346 323 282 297 112 103 107 109 58 74 141 140 114 68 122 124 157 181 195 190 190 238 229 222 222 154 204 256 239 151 197 197 180 182 205 220 251 167 171 211 283 64 54 119 255 272 227 253 260 276 314 284 185 182 265 285 264 169 261 249 250 268 308 28 49 57 72 79 79 78 79
258 258 260 262 263 263 259 259 266 273 280 296 316 324 329 332 335 356 264 258 331 104 116 137 120 64 104 143 157 90 50 44 44 126 161 187 196 194 239 229 209 216 183 215 254 267 79 109 202 185 200 228 219 1 121 182 208 110 117 97 88 96 66 158 253 280 273 281 262 175 175 254 292 280 156 244 270 279 333 8 53 67 66 64 61 56 60 64
256 259 263 262 263 264 263 262 266 273 280 283 297 321 326 281 252 232 218 224 2 88 127 154 152 50 153 159 183 267 242 28 91 131 143 162 198 209 281 340 151 192 211 230 251 255 173 99 128 208 225 228 112 68 21 178 154 123 150 131 107 169 112 173 240 300 269 270 234 176 186 225 282 342 170 124 319 308 350 349 69 77 66 55 50 43 50 61
255 260 264 262 261 262 263 264 268 274 268 264 272 265 157 159 200 224 226 255 333 151 128 138 140 112 165 164 26 119 142 48 119 148 148 128 182 196 267 242 169 190 229 236 243 243 190 187 202 225 219 182 111 116 58 63 85 123 134 331 294 243 207 207 185 151 250 265 210 169 190 217 236 255 3 347 325 282 251 299 6 62 61 53 52 52 59 66
261 264 264 262 259 257 255 258 265 264 254 246 219 162 150 246 236 212 206 11 294 213 147 176 199 137 156 30 349 150 100 165 161 156 147 135 191 192 225 225 183 270 274 229 256 283 219 206 192 251 216 185 175 183 123 99 111 122 119 323 286 290 287 243 220 206 245 265 54 54 270 233 242 253 268 282 295 294 181 354 23 62 70 61 60 61 65 66
260 261 261 257 254 252 249 252 253 247 250 229 173 138 114 243 238 182 167 206 230 90 117 132 98 139 177 273 260 161 176 179 164 167 135 126 253 226 240 234 138 270 285 315 320 306 286 203 143 200 237 185 192 206 213 194 164 168 172 173 208 257 278 268 270 268 267 282 77 71 244 249 262 255 248 259 275 5 40 55 70 78 77 69 65 64 64 64
254 254 253 249 247 245 242 245 241 237 241 201 164 138 180 222 237 78 193 212 248 33 105 110 101 149 190 253 260 172 230 244 145 157 138 129 204 237 233 214 163 176 270 316 324 314 291 297 165 198 205 162 192 218 212 105 153 187 174 157 208 217 247 270 268 264 279 291 174 144 182 243 276 55 229 255 332 39 51 73 83 77 73 72 67 62 60 59
252 251 250 248 247 242 239 237 228 223 210 177 160 199 215 215 207 142 208 224 308 331 55 105 126 247 235 217 234 188 222 248 132 138 182 175 201 210 193 185 178 168 130 166 287 114 262 267 189 149 129 161 190 218 107 99 160 222 90 103 246 216 207 248 253 245 289 302 258 197 217 250 266 290 263 248 58 60 61 68 69 62 60 61 58 54 54 55
251 250 249 248 245 242 239 232 221 209 189 167 167 233 226 235 213 166 174 150 141 129 24 290 194 259 265 221 196 186 201 230 167 169 212 203 226 221 205 204 178 175 167 175 214 178 245 261 152 116 196 193 194 180 150 178 199 118 164 199 233 198 181 241 259 215 270 280 262 236 255 262 270 280 255 133 84 70 64 59 58 56 52 53 53 51 54 56
249 249 249 247 243 241 236 227 214 199 186 175 206 231 221 247 225 210 171 139 149 133 123 290 228 229 267 253 219 172 173 218 178 188 219 203 230 203 194 247 185 185 199 201 223 220 233 264 224 181 226 221 190 177 176 197 172 142 200 208 139 30 90 238 259 154 214 251 257 256 266 271 275 270 164 114 86 68 60 58 60 56 52 57 57 53 57 59
251 250 252 249 242 233 225 219 202 190 187 191 229 231 221 218 209 199 182 171 174 154 200 254 241 213 247 256 257 156 167 208 170 183 224 206 220 171 162 240 191 191 215 208 221 245 215 259 263 205 226 217 134 175 228 205 189 188 250 290 90 229 228 199 213 209 229 248 250 248 263 270 264 253 227 107 81 78 63 53 54 49 49 54 54 54 56 57
251 247 252 248 236 224 216 204 189 187 190 206 231 231 225 220 216 209 204 196 155 154 219 240 230 235 241 235 249 179 185 209 172 185 222 211 227 186 156 237 204 193 225 199 204 267 177 252 274 167 201 123 114 196 215 187 179 49 307 309 86 242 241 203 190 194 230 251 252 238 252 261 268 271 150 72 70 81 72 60 58 50 51 52 50 51 50 51
228 222 239 227 215 210 198 184 182 188 195 216 227 227 199 212 229 217 212 213 203 198 232 236 218 232 247 233 236 232 219 222 200 215 228 220 254 227 121 327 244 119 349 213 243 262 146 241 253 254 69 190 190 202 199 196 194 182 209 218 196 197 239 274 254 213 228 252 250 246 247 242 306 14 89 99 82 73 72 72 67 52 52 52 50 50 48 47
190 196 224 197 193 188 176 172 185 195 203 229 233 238 233 240 256 224 214 214 219 227 232 229 225 234 253 255 240 215 182 220 221 234 239 238 248 248 42 14 333 80 98 80 270 232 219 240 247 253 236 228 228 159 186 230 226 204 210 209 208 199 198 256 243 202 214 240 233 249 256 227 90 35 92 111 111 102 93 91 85 62 51 50 50 49 45 41
182 189 199 186 182 171 166 171 200 196 206 226 223 228 234 253 250 232 229 217 223 241 233 219 240 240 246 258 255 248 236 233 234 237 240 241 237 240 19 18 3 14 38 297 2 6 318 303 263 261 248 257 276 49 86 321 357 328 270 225 254 240 211 242 251 227 226 228 221 243 254 233 118 85 104 113 116 114 111 110 106 95 69 58 52 46 41 35
182 169 170 174 168 166 168 186 211 194 222 226 203 220 227 243 253 217 206 213 217 234 229 221 235 236 244 257 255 255 254 244 241 242 246 253 244 275 5 12 14 11 349 318 340 21 28 224 257 259 252 273 284 293 89 71 84 287 279 244 269 268 253 257 264 297 274 232 233 252 251 221 123 119 116 117 118 113 108 100 99 100 84 64 51 42 39 35
170 156 163 167 167 171 179 208 204 205 226 222 226 238 233 241 252 234 225 220 215 201 209 245 242 235 247 292 256 249 258 256 248 244 246 266 296 32 16 14 23 26 3 325 280 296 279 257 286 290 283 283 274 246 90 84 123 270 289 277 303 324 327 312 271 243 249 219 228 253 259 236 119 145 157 143 133 124 109 92 85 89 79 56 40 34 34 32
153 155 169 172 176 185 203 242 201 213 220 222 237 242 240 250 249 241 244 240 230 218 224 254 235 216 229 90 86 233 230 231 255 263 135 215 253 52 32 33 58 93 58 47 63 241 268 263 265 284 284 279 276 278 291 48 54 337 294 304 347 15 329 310 280 254 250 217 220 245 265 311 103 169 195 170 136 132 133 133 131 126 114 70 39 28 26 24
144 167 176 180 193 207 233 247 199 215 217 220 235 240 241 246 244 231 230 238 240 228 229 240 212 195 224 225 240 260 250 224 217 237 253 260 259 67 43 51 72 78 65 58 58 95 250 250 227 249 265 268 275 281 290 54 276 265 258 269 283 262 231 269 266 256 288 302 266 263 278 288 284 240 238 205 127 130 144 153 168 179 197 223 260 330 2 7
141 190 153 166 208 222 233 224 200 202 202 206 219 246 240 232 234 226 213 220 242 223 226 237 206 203 223 222 232 253 257 233 217 234 258 266 266 62 39 65 62 43 41 71 49 118 231 260 239 244 257 260 267 273 269 218 246 252 254 256 263 263 254 258 260 266 300 305 278 276 284 279 273 271 278 285 121 133 142 165 201 218 223 230 247 268 298 329
149 168 154 157 190 221 217 209 190 186 190 193 212 290 247 214 214 212 192 188 296 230 222 218 163 152 224 203 196 223 257 264 248 226 234 263 288 336 352 75 61 35 33 356 356 131 235 263 256 259 267 260 262 268 252 238 247 245 245 249 255 260 257 255 258 264 273 270 269 286 287 277 274 276 283 312 96 118 119 199 237 252 248 241 246 256 267 287
155 150 157 164 170 63 122 122 116 172 211 202 215 253 244 231 231 215 113 39 286 288 306 221 156 60 58 90 163 239 262 275 272 249 144 69 305 263 290 265 113 43 32 1 309 301 242 257 262 288 288 275 274 281 279 279 278 267 260 259 261 262 262 264 265 263 260 258 262 271 271 271 277 285 310 90 92 33 341 315 291 288 288 279 271 270 268 273
167 164 154 150 132 85 96 97 88 144 216 214 233 245 234 241 248 242 144 319 255 254 297 236 201 93 93 99 150 239 250 250 265 263 149 143 230 180 270 278 135 17 8 358 312 324 298 270 79 31 292 274 270 274 276 281 280 278 277 272 267 265 267 269 267 262 258 257 258 258 260 263 269 82 95 116 145 321 321 314 307 298 294 290 285 286 283 278
173 170 153 137 129 123 125 114 109 160 215 212 224 239 231 239 245 233 72 7 289 253 179 147 146 129 131 142 170 239 235 171 186 216 155 187 255 303 208 181 83 351 338 318 283 328 313 285 12 324 280 267 267 270 276 291 289 277 269 265 264 263 262 259 258 259 258 259 260 257 259 261 158 105 99 143 165 312 313 313 312 307 302 295 292 296 297 293
182 184 171 151 138 142 143 136 153 185 210 198 203 212 188 213 200 160 181 85 66 71 96 118 133 133 186 226 240 236 211 175 155 187 264 263 272 267 254 249 247 245 240 248 264 244 230 240 280 288 279 272 274 279 301 336 293 268 250 253 258 258 258 258 258 258 257 258 265 265 268 280 125 126 72 39 353 312 319 318 314 316 318 312 306 305 305 305
Height
1565 1565 1565 1565 1565 1565 1565 1565 1565 1565 1565 1565 1565 1564 1564 1564 1564 1564 1563 1563 1563 1563 1563 1562 1562 1561 1561 1560 1560 1559 1559 1558 1557 1556 1555 1553 1553 1553 1553 1552 1552 1552 1552 1552 1553 1553 1554 1554 1554 1555 1555 1556 1556 1555 1556 1555 1555 1555 1554 1555 1553 1549 1548 1546 1545 1544 1542 1539 1538 1539 1540 1540 1539 1538 1538 1537 1536 1535 1533 1529 1528 1527 1525 1524 1524 1524 1524 1524
1565 1565 1565 1565 1565 1565 1565 1565 1565 1564 1564 1564 1564 1564 1564 1564 1563 1563 1563 1563 1563 1562 1562 1562 1561 1561 1560 1560 1559 1558 1557 1557 1555 1554 1553 1553 1553 1552 1552 1552 1551 1551 1551 1552 1552 1553 1553 1554 1554 1554 1555 1555 1555 1555 1555 1555 1555 1554 1553 1554 1550 1544 1543 1542 1541 1540 1540 1539 1537 1538 1539 1539 1538 1537 1537 1536 1534 1533 1531 1525 1524 1524 1521 1521 1521 1522 1522 1522
1564 1564 1564 1564 1564 1564 1564 1564 1564 1564 1564 1563 1563 1563 1563 1563 1563 1563 1562 1562 1562 1562 1561 1561 1561 1560 1559 1559 1558 1558 1557 1556 1553 1552 1552 1552 1552 1552 1552 1551 1551 1551 1551 1552 1552 1553 1553 1553 1554 1554 1554 1554 1554 1554 1554 1554 1553 1552 1553 1552 1544 1540 1540 1540 1540 1539 1539 1538 1538 1538 1538 1537 1536 1536 1536 1534 1532 1532 1528 1522 1521 1520 1517 1518 1519 1519 1520 1520
1563 1563 1563 1563 1563 1563 1563 1563 1563 1563 1563 1562 1562 1562 1562 1562 1562 1562 1561 1561 1561 1561 1561 1560 1560 1559 1559 1558 1557 1557 1556 1554 1551 1550 1551 1551 1551 1551 1551 1551 1551 1550 1550 1551 1551 1552 1552 1553 1553 1553 1554 1553 1553 1554 1553 1552 1552 1551 1550 1546 1540 1539 1540 1538 1538 1538 1539 1539 1538 1538 1537 1535 1533 1534 1534 1533 1532 1528 1522 1519 1518 1517 1516 1517 1518 1517 1517 1517
1562 1562 1562 1562 1562 1562 1562 1562 1562 1562 1562 1561 1561 1561 1561 1561 1561 1561 1560 1560 1560 1560 1560 1559 1559 1558 1557 1557 1557 1556 1556 1554 1550 1550 1551 1550 1551 1551 1551 1550 1550 1550 1550 1550 1550 1551 1552 1552 1552 1553 1553 1552 1553 1553 1551 1550 1550 1549 1545 1541 1538 1539 1539 1537 1537 1538 1538 1538 1537 1537 1535 1533 1531 1531 1530 1530 1530 1522 1517 1517 1515 1515 1515 1515 1515 1514 1514 1514
1560 1560 1561 1561 1561 1561 1561 1561 1561 1561 1560 1560 1560 1560 1560 1560 1560 1559 1559 1559 1559 1558 1558 1558 1557 1557 1556 1556 1555 1555 1556 1554 1550 1550 1550 1550 1550 1550 1550 1549 1549 1549 1550 1550 1550 1550 1551 1551 1552 1552 1552 1551 1551 1550 1548 1548 1549 1546 1540 1538 1538 1538 1537 1535 1536 1537 1537 1538 1536 1535 1533 1530 1530 1527 1525 1526 1524 1517 1514 1514 1513 1512 1512 1511 1511 1511 1510 1510
1559 1559 1559 1559 1560 1559 1559 1559 1559 1559 1559 1559 1559 1559 1559 1558 1558 1558 1558 1558 1557 1557 1557 1556 1556 1555 1555 1554 1553 1553 1554 1552 1550 1550 1550 1549 1549 1548 1548 1548 1549 1549 1549 1549 1549 1549 1549 1550 1550 1550 1550 1550 1548 1547 1547 1547 1548 1546 1540 1537 1537 1537 1536 1535 1536 1536 1536 1536 1534 1534 1532 1528 1526 1524 1521 1520 1517 1512 1511 1510 1510 1509 1509 1509 1507 1507 1507 1507
1558 1558 1558 1558 1558 1558 1558 1558 1558 1558 1557 1558 1557 1557 1557 1557 1557 1556 1556 1556 1556 1555 1555 1555 1554 1554 1553 1552 1552 1551 1551 1549 1548 1549 1548 1548 1547 1547 1547 1547 1548 1548 1548 1548 1548 1548 1548 1549 1549 1549 1549 1547 1546 1546 1546 1546 1546 1545 1539 1536 1536 1536 1535 1534 1534 1534 1534 1534 1533 1533 1530 1523 1522 1524 1517 1513 1511 1510 1509 1507 1507 1506 1505 1505 1504 1505 1505 1504
1556 1556 1556 1556 1556 1556 1556 1556 1556 1556 1556 1556 1556 1555 1555 1555 1555 1554 1554 1554 1554 1553 1553 1553 1552 1552 1552 1550 1550 1549 1546 1546 1547 1547 1547 1547 1547 1546 1546 1546 1546 1546 1547 1547 1547 1547 1547 1547 1547 1547 1546 1545 1545 1545 1545 1546 1542 1539 1537 1536 1535 1534 1533 1533 1532 1532 1532 1530 1531 1531 1526 1520 1520 1522 1511 1503 1506 1507 1507 1505 1503 1504 1502 1502 1502 1502 1502 1502
1554 1554 1555 1554 1554 1554 1554 1554 1554 1554 1554 1554 1553 1553 1553 1553 1553 1552 1552 1552 1551 1551 1551 1551 1550 1550 1549 1548 1549 1545 1542 1544 1545 1545 1546 1545 1545 1545 1545 1545 1545 1545 1545 1545 1546 1546 1546 1546 1545 1546 1546 1545 1544 1544 1544 1543 1539 1537 1538 1537 1535 1533 1531 1530 1529 1529 1530 1527 1527 1527 1523 1518 1520 1522 1507 1497 1503 1505 1504 1503 1501 1502 1500 1499 1500 1499 1499 1498
1552 1552 1553 1552 1552 1552 1552 1552 1552 1552 1552 1551 1551 1551 1551 1550 1550 1550 1550 1549 1549 1549 1549 1549 1548 1548 1547 1547 1546 1541 1539 1543 1543 1543 1544 1543 1543 1543 1543 1543 1543 1543 1544 1544 1544 1544 1545 1545 1545 1546 1545 1544 1543 1543 1542 1540 1538 1538 1539 1537 1533 1532 1528 1526 1526 1525 1526 1524 1522 1524 1522 1518 1519 1519 1504 1497 1502 1502 1502 1501 1499 1499 1498 1498 1498 1497 1496 1495
1550 1550 1551 1550 1550 1550 1550 1550 1550 1550 1549 1549 1549 1548 1548 1548 1548 1548 1547 1547 1546 1546 1546 1546 1546 1546 1545 1543 1540 1537 1538 1540 1541 1541 1541 1540 1540 1540 1540 1541 1541 1542 1542 1542 1543 1543 1544 1544 1545 1545 1544 1543 1542 1542 1540 1539 1540 1540 1539 1537 1532 1530 1525 1520 1520 1520 1521 1521 1520 1523 1523 1516 1513 1508 1498 1497 1501 1500 1500 1499 1496 1497 1496 1496 1495 1494 1493 1491
1549 1549 1549 1548 1548 1548 1548 1548 1548 1548 1547 1547 1547 1546 1546 1545 1545 1545 1544 1544 1544 1544 1544 1544 1544 1543 1544 1539 1534 1535 1537 1537 1538 1539 1538 1538 1538 1537 1538 1539 1539 1540 1540 1541 1541 1541 1542 1542 1543 1544 1543 1543 1541 1541 1540 1539 1541 1539 1539 1539 1533 1530 1522 1514 1517 1518 1518 1519 1518 1522 1520 1508 1502 1498 1495 1498 1499 1498 1498 1496 1494 1494 1494 1494 1493 1491 1489 1487
1547 1547 1547 1547 1547 1547 1546 1546 1546 1546 1545 1545 1545 1544 1544 1543 1543 1542 1542 1542 1542 1542 1541 1542 1541 1542 1541 1536 1531 1533 1534 1534 1535 1536 1536 1536 1535 1535 1535 1536 1537 1538 1538 1539 1539 1540 1541 1541 1543 1543 1542 1542 1541 1540 1539 1540 1540 1537 1537 1537 1534 1533 1522 1512 1515 1517 1516 1516 1516 1520 1517 1504 1497 1495 1495 1497 1497 1497 1496 1493 1492 1492 1491 1491 1489 1488 1485 1482
1545 1545 1545 1545 1545 1545 1545 1545 1545 1544 1544 1543 1543 1542 1542 1541 1541 1540 1540 1540 1540 1540 1539 1539 1539 1540 1539 1534 1530 1530 1531 1532 1533 1533 1534 1533 1533 1533 1533 1534 1535 1536 1536 1537 1537 1538 1539 1540 1541 1542 1541 1540 1540 1541 1539 1539 1537 1536 1537 1533 1530 1532 1522 1512 1513 1513 1513 1514 1516 1518 1513 1502 1496 1494 1495 1495 1495 1495 1494 1491 1489 1488 1487 1486 1484 1483 1480 1477
1543 1543 1543 1544 1544 1544 1544 1543 1543 1543 1543 1542 1541 1541 1540 1539 1539 1538 1538 1537 1538 1537 1537 1537 1537 1538 1537 1532 1529 1529 1529 1530 1531 1531 1531 1531 1531 1531 1531 1532 1533 1534 1535 1535 1536 1537 1538 1539 1540 1541 1541 1539 1539 1540 1540 1540 1536 1533 1535 1531 1526 1526 1520 1515 1512 1509 1510 1513 1515 1514 1507 1499 1494 1493 1494 1494 1493 1493 1492 1488 1485 1484 1482 1480 1478 1477 1475 1472
1542 1542 1542 1542 1542 1542 1543 1542 1542 1542 1541 1541 1540 1539 1538 1538 1537 1536 1536 1536 1536 1535 1536 1535 1535 1537 1534 1529 1528 1527 1527 1528 1528 1529 1529 1529 1530 1530 1530 1531 1531 1532 1533 1534 1535 1536 1537 1539 1539 1539 1539 1539 1538 1539 1543 1544 1535 1527 1529 1529 1525 1523 1521 1518 1511 1507 1509 1511 1510 1511 1507 1499 1495 1493 1493 1492 1492 1491 1488 1484 1480 1479 1477 1474 1473 1471 1470 1470
1541 1541 1541 1541 1541 1542 1542 1541 1541 1541 1541 1540 1539 1538 1537 1536 1535 1535 1534 1534 1534 1534 1534 1534 1535 1536 1532 1527 1526 1526 1526 1527 1527 1527 1528 1527 1528 1528 1529 1529 1530 1531 1532 1534 1534 1535 1537 1538 1538 1538 1537 1537 1537 1538 1542 1537 1526 1520 1523 1524 1522 1521 1522 1519 1513 1508 1508 1507 1508 1508 1503 1497 1494 1493 1492 1489 1489 1488 1483 1479 1477 1474 1471 1469 1469 1467 1468 1468
1540 1540 1540 1540 1540 1541 1541 1540 1540 1540 1540 1539 1538 1537 1536 1535 1534 1533 1533 1533 1533 1533 1532 1532 1532 1532 1528 1525 1525 1525 1525 1525 1525 1525 1525 1526 1526 1527 1527 1528 1529 1531 1532 1532 1533 1534 1535 1537 1539 1538 1534 1530 1530 1531 1529 1522 1518 1520 1523 1523 1522 1520 1517 1514 1510 1506 1507 1508 1506 1504 1497 1492 1491 1490 1489 1486 1485 1484 1477 1474 1473 1469 1468 1467 1464 1463 1466 1467
1539 1539 1540 1540 1540 1540 1540 1540 1539 1539 1539 1538 1537 1536 1535 1535 1534 1532 1532 1532 1532 1531 1530 1530 1529 1528 1526 1524 1524 1524 1524 1523 1523 1523 1523 1524 1525 1525 1526 1528 1529 1530 1530 1530 1531 1533 1534 1534 1534 1532 1525 1521 1522 1522 1520 1519 1521 1526 1527 1525 1522 1520 1515 1509 1507 1505 1508 1508 1502 1498 1494 1489 1488 1486 1485 1484 1480 1477 1472 1470 1469 1466 1465 1462 1459 1462 1465 1464
1538 1538 1538 1539 1539 1539 1539 1539 1538 1538 1538 1537 1537 1536 1536 1536 1534 1533 1532 1530 1529 1529 1527 1526 1526 1524 1523 1523 1522 1522 1522 1521 1521 1520 1521 1522 1523 1525 1525 1527 1528 1529 1528 1529 1531 1532 1533 1532 1527 1522 1519 1519 1521 1521 1522 1523 1525 1526 1526 1524 1521 1520 1513 1507 1506 1504 1507 1508 1500 1496 1493 1488 1487 1482 1479 1479 1475 1470 1469 1469 1467 1462 1460 1457 1458 1462 1462 1462
1537 1537 1537 1538 1537 1538 1538 1538 1538 1537 1537 1536 1536 1536 1536 1536 1535 1535 1533 1529 1525 1525 1524 1522 1521 1519 1519 1520 1519 1520 1521 1520 1519 1519 1520 1521 1522 1524 1524 1525 1526 1525 1527 1530 1530 1531 1532 1528 1523 1520 1519 1522 1524 1524 1526 1526 1526 1525 1525 1525 1522 1519 1512 1505 1504 1505 1508 1508 1499 1494 1493 1488 1483 1475 1471 1471 1470 1468 1466 1467 1464 1458 1454 1455 1460 1462 1461 1461
1536 1536 1537 1536 1536 1537 1537 1537 1537 1537 1537 1536 1536 1535 1535 1535 1534 1533 1533 1530 1524 1521 1519 1517 1516 1515 1515 1517 1516 1518 1520 1519 1518 1518 1519 1521 1522 1523 1523 1524 1524 1525 1527 1527 1525 1527 1527 1522 1519 1519 1520 1523 1525 1525 1527 1526 1524 1523 1523 1524 1521 1516 1514 1509 1505 1506 1509 1507 1501 1499 1493 1481 1473 1467 1464 1466 1466 1464 1463 1462 1458 1453 1453 1457 1460 1461 1461 1460
1535 1535 1535 1535 1536 1536 1536 1536 1536 1536 1536 1535 1535 1535 1534 1534 1533 1532 1531 1528 1524 1518 1514 1513 1513 1513 1513 1514 1514 1516 1517 1517 1518 1518 1518 1520 1521 1522 1522 1522 1524 1525 1524 1522 1521 1520 1518 1517 1517 1519 1521 1523 1524 1524 1527 1526 1520 1517 1519 1521 1517 1512 1513 1510 1505 1507 1507 1504 1504 1501 1486 1470 1466 1464 1461 1463 1464 1462 1460 1457 1451 1451 1456 1459 1459 1460 1461 1460
1534 1534 1534 1534 1535 1535 1535 1535 1535 1535 1535 1535 1535 1534 1533 1533 1532 1531 1529 1528 1524 1516 1511 1511 1513 1513 1513 1513 1513 1515 1516 1516 1517 1517 1517 1518 1520 1520 1521 1521 1522 1521 1519 1520 1521 1518 1515 1516 1518 1519 1521 1523 1524 1523 1524 1524 1518 1514 1515 1515 1512 1510 1511 1509 1508 1512 1510 1504 1505 1505 1492 1474 1465 1465 1462 1461 1462 1459 1455 1450 1448 1453 1458 1458 1458 1459 1460 1461
1532 1533 1533 1534 1534 1534 1534 1534 1534 1535 1534 1534 1534 1533 1533 1532 1531 1531 1529 1529 1523 1513 1510 1512 1513 1513 1513 1513 1513 1514 1515 1516 1516 1516 1517 1518 1519 1520 1520 1521 1521 1521 1520 1521 1522 1520 1517 1517 1517 1519 1521 1523 1526 1523 1518 1519 1519 1516 1513 1511 1511 1511 1513 1513 1514 1516 1512 1505 1505 1510 1508 1490 1469 1465 1465 1461 1461 1456 1449 1445 1448 1455 1458 1458 1459 1458 1460 1463
1530 1531 1532 1532 1533 1533 1533 1533 1533 1533 1533 1534 1533 1533 1533 1531 1532 1531 1528 1530 1523 1511 1510 1513 1513 1513 1513 1513 1513 1513 1515 1515 1516 1516 1516 1517 1518 1519 1519 1519 1520 1521 1521 1523 1523 1519 1516 1517 1519 1520 1521 1523 1525 1519 1512 1516 1520 1516 1512 1513 1513 1513 1515 1516 1517 1517 1511 1508 1507 1507 1511 1501 1479 1468 1466 1462 1461 1454 1446 1445 1449 1454 1458 1459 1460 1460 1462 1463
1528 1529 1530 1531 1531 1532 1532 1532 1532 1532 1533 1533 1532 1533 1532 1531 1533 1529 1531 1536 1523 1509 1511 1512 1512 1513 1512 1513 1513 1513 1514 1514 1515 1515 1516 1517 1517 1519 1518 1517 1518 1519 1520 1523 1520 1515 1515 1517 1519 1519 1522 1521 1517 1512 1510 1514 1516 1514 1515 1516 1515 1516 1517 1517 1516 1514 1512 1513 1509 1503 1508 1503 1480 1467 1467 1465 1461 1454 1448 1450 1452 1455 1459 1461 1461 1463 1464 1463
1526 1527 1528 1529 1529 1529 1530 1531 1531 1531 1532 1532 1532 1532 1531 1532 1532 1529 1537 1539 1518 1507 1512 1512 1512 1513 1512 1514 1514 1513 1514 1513 1514 1515 1516 1517 1517 1517 1517 1516 1517 1518 1518 1520 1517 1514 1515 1517 1517 1518 1518 1514 1510 1511 1513 1513 1513 1514 1517 1517 1517 1518 1518 1518 1515 1511 1514 1514 1505 1500 1503 1497 1477 1463 1465 1467 1463 1457 1453 1455 1457 1458 1461 1462 1464 1465 1465 1463
1524 1525 1526 1527 1527 1528 1528 1529 1530 1530 1530 1531 1531 1531 1531 1532 1532 1535 1541 1532 1512 1508 1512 1510 1511 1513 1512 1513 1513 1514 1514 1513 1514 1516 1516 1517 1517 1517 1517 1517 1518 1518 1518 1519 1516 1513 1514 1517 1517 1515 1512 1508 1509 1514 1516 1514 1515 1516 1517 1515 1515 1516 1515 1517 1514 1511 1514 1507 1494 1490 1492 1492 1483 1467 1462 1464 1463 1460 1457 1457 1459 1461 1463 1464 1467 1468 1467 1466
1521 1523 1524 1524 1525 1526 1527 1528 1528 1529 1529 1530 1530 1530 1531 1530 1532 1538 1536 1520 1511 1511 1510 1510 1513 1513 1513 1513 1512 1513 1514 1515 1515 1515 1516 1516 1516 1517 1518 1517 1517 1518 1517 1517 1515 1513 1515 1517 1514 1509 1507 1507 1509 1513 1516 1517 1517 1517 1517 1515 1515 1513 1512 1514 1512 1514 1515 1499 1487 1488 1488 1490 1487 1471 1462 1461 1459 1460 1460 1458 1459 1463 1466 1468 1470 1471 1470 1469
1519 1520 1521 1522 1523 1524 1525 1526 1526 1528 1528 1528 1529 1529 1530 1533 1533 1532 1525 1514 1512 1512 1507 1510 1513 1512 1514 1514 1512 1514 1514 1514 1515 1515 1515 1517 1517 1516 1516 1514 1514 1516 1516 1513 1512 1511 1510 1509 1508 1507 1506 1508 1508 1510 1515 1517 1518 1518 1518 1519 1520 1517 1515 1514 1511 1510 1505 1494 1492 1496 1494 1491 1482 1467 1463 1459 1455 1457 1459 1460 1463 1466 1470 1471 1472 1473 1471 1470
1517 1518 1519 1520 1521 1522 1524 1524 1525 1526 1527 1527 1528 1527 1531 1536 1530 1522 1517 1513 1511 1509 1507 1510 1512 1512 1514 1512 1511 1514 1514 1513 1513 1515 1515 1517 1518 1515 1513 1513 1513 1515 1515 1513 1513 1510 1505 1503 1506 1507 1505 1505 1507 1507 1509 1511 1515 1518 1515 1517 1520 1520 1522 1520 1512 1508 1500 1492 1496 1500 1498 1492 1477 1464 1460 1456 1455 1459 1460 1464 1468 1469 1471 1473 1473 1474 1473 1471
1515 1516 1517 1517 1519 1520 1521 1523 1524 1525 1526 1527 1527 1528 1532 1533 1523 1516 1516 1510 1507 1508 1508 1510 1511 1512 1512 1511 1510 1511 1512 1512 1512 1514 1515 1517 1518 1514 1511 1512 1513 1514 1515 1517 1518 1516 1514 1507 1504 1503 1501 1502 1504 1502 1501 1505 1511 1513 1509 1511 1512 1510 1515 1517 1510 1506 1499 1490 1494 1502 1498 1485 1472 1463 1459 1456 1458 1462 1464 1466 1470 1471 1473 1474 1474 1475 1473 1471
1512 1513 1514 1515 1516 1518 1519 1521 1522 1523 1525 1525 1527 1529 1528 1522 1514 1514 1514 1509 1507 1508 1508 1509 1510 1512 1511 1510 1511 1509 1509 1511 1511 1514 1514 1513 1513 1510 1506 1507 1510 1512 1515 1520 1520 1520 1521 1510 1499 1500 1501 1501 1502 1499 1500 1505 1509 1512 1510 1511 1509 1501 1501 1505 1502 1499 1499 1497 1495 1495 1488 1471 1462 1460 1457 1457 1460 1464 1467 1469 1470 1473 1474 1474 1473 1473 1473 1473
1510 1510 1511 1512 1514 1515 1517 1519 1520 1522 1522 1523 1527 1527 1519 1513 1510 1510 1509 1507 1507 1508 1509 1510 1509 1511 1511 1508 1510 1511 1509 1510 1511 1512 1512 1511 1509 1506 1503 1501 1503 1506 1508 1513 1514 1514 1517 1506 1495 1501 1501 1498 1499 1498 1500 1502 1504 1511 1513 1507 1502 1498 1496 1500 1501 1497 1502 1506 1491 1480 1477 1466 1460 1460 1456 1457 1461 1465 1470 1472 1473 1475 1475 1474 1474 1475 1476 1476
1507 1508 1508 1509 1511 1513 1514 1516 1518 1520 1521 1522 1524 1519 1512 1509 1507 1507 1507 1506 1507 1507 1510 1513 1510 1509 1510 1508 1507 1509 1509 1509 1511 1510 1509 1509 1505 1501 1501 1499 1499 1501 1499 1502 1505 1504 1507 1501 1492 1496 1497 1495 1497 1497 1498 1498 1499 1505 1507 1499 1496 1500 1499 1500 1506 1505 1506 1506 1488 1474 1473 1468 1466 1466 1459 1457 1462 1468 1473 1474 1476 1478 1478 1478 1478 1479 1479 1477
1504 1505 1505 1505 1508 1510 1511 1514 1516 1518 1520 1520 1518 1512 1508 1507 1504 1504 1506 1506 1507 1507 1510 1514 1510 1506 1508 1508 1506 1506 1509 1509 1509 1509 1508 1506 1501 1496 1497 1497 1496 1497 1496 1498 1501 1500 1503 1501 1491 1489 1492 1493 1496 1499 1498 1496 1497 1498 1498 1496 1497 1501 1500 1498 1505 1508 1506 1502 1490 1478 1474 1469 1467 1464 1458 1458 1465 1471 1475 1476 1477 1478 1479 1479 1479 1479 1478 1477
1501 1503 1502 1501 1504 1506 1508 1511 1513 1516 1518 1516 1514 1509 1505 1503 1502 1503 1504 1504 1506 1507 1509 1509 1507 1506 1505 1506 1505 1505 1507 1506 1506 1508 1506 1504 1499 1494 1494 1495 1494 1496 1497 1498 1500 1499 1501 1503 1494 1488 1492 1494 1496 1499 1497 1494 1497 1499 1498 1498 1497 1498 1496 1495 1500 1501 1498 1498 1492 1485 1481 1472 1463 1459 1461 1467 1472 1474 1477 1477 1478 1480 1480 1480 1480 1479 1479 1478
1499 1500 1499 1498 1500 1502 1504 1508 1511 1513 1512 1509 1507 1505 1502 1502 1502 1502 1503 1504 1504 1505 1505 1505 1505 1506 1503 1503 1503 1503 1506 1506 1504 1506 1505 1502 1498 1494 1494 1495 1494 1496 1498 1498 1500 1499 1500 1502 1497 1490 1494 1495 1492 1492 1490 1487 1491 1496 1497 1497 1497 1496 1496 1497 1498 1495 1494 1495 1491 1490 1485 1472 1465 1466 1470 1476 1478 1477 1478 1478 1479 1480 1480 1481 1481 1480 1480 1479
1497 1498 1497 1497 1498 1499 1502 1507 1507 1506 1506 1504 1502 1502 1501 1502 1501 1501 1502 1503 1503 1503 1503 1503 1503 1504 1503 1503 1503 1502 1505 1506 1504 1505 1505 1502 1500 1498 1498 1498 1496 1497 1499 1499 1500 1500 1499 1500 1498 1492 1492 1490 1485 1484 1485 1484 1484 1487 1489 1488 1488 1490 1495 1499 1498 1491 1491 1491 1486 1487 1482 1470 1472 1477 1477 1479 1481 1479 1479 1479 1480 1481 1481 1481 1481 1480 1480 1479
1494 1495 1495 1495 1496 1497 1500 1503 1502 1502 1502 1501 1499 1500 1501 1501 1500 1501 1502 1502 1503 1502 1502 1503 1503 1502 1503 1502 1502 1502 1504 1505 1504 1504 1504 1500 1498 1498 1499 1500 1499 1498 1499 1499 1499 1500 1500 1501 1501 1497 1490 1484 1481 1483 1486 1486 1486 1488 1488 1486 1485 1487 1491 1495 1493 1486 1486 1484 1479 1481 1477 1470 1477 1482 1480 1481 1482 1480 1481 1481 1481 1482 1482 1481 1481 1480 1479 1477
1492 1492 1493 1494 1495 1497 1499 1500 1499 1500 1499 1496 1497 1499 1500 1500 1500 1500 1501 1502 1502 1501 1501 1501 1501 1501 1501 1500 1500 1501 1502 1504 1501 1499 1499 1499 1497 1499 1500 1500 1500 1500 1501 1501 1500 1502 1503 1502 1501 1497 1489 1484 1482 1483 1486 1488 1489 1490 1490 1489 1491 1490 1489 1491 1491 1489 1490 1483 1478 1481 1475 1470 1477 1482 1482 1483 1483 1482 1482 1481 1481 1482 1481 1481 1481 1479 1479 1477
1490 1491 1492 1493 1495 1496 1497 1496 1496 1497 1496 1496 1498 1498 1499 1499 1499 1499 1500 1501 1500 1501 1501 1501 1499 1500 1500 1500 1501 1502 1503 1504 1501 1497 1499 1500 1499 1501 1501 1499 1500 1501 1502 1502 1502 1503 1504 1502 1502 1501 1496 1491 1487 1484 1485 1487 1489 1492 1492 1492 1493 1491 1491 1491 1490 1492 1493 1483 1479 1482 1473 1466 1475 1482 1482 1483 1483 1481 1482 1481 1481 1481 1481 1481 1481 1479 1479 1478
1489 1491 1492 1493 1493 1494 1494 1492 1493 1495 1495 1497 1498 1498 1498 1498 1496 1497 1499 1499 1499 1499 1500 1500 1499 1499 1500 1501 1502 1503 1502 1504 1503 1501 1501 1501 1500 1501 1501 1500 1501 1501 1502 1503 1502 1503 1503 1501 1502 1503 1503 1500 1494 1488 1487 1490 1493 1495 1494 1493 1494 1494 1495 1494 1491 1490 1488 1478 1475 1478 1472 1467 1475 1481 1480 1480 1480 1480 1481 1482 1481 1481 1481 1481 1480 1479 1478 1477
1487 1489 1491 1493 1493 1493 1492 1492 1493 1493 1494 1497 1498 1496 1496 1495 1494 1495 1496 1497 1497 1497 1498 1498 1498 1499 1500 1501 1502 1502 1500 1501 1503 1502 1501 1500 1500 1501 1501 1501 1501 1501 1503 1503 1502 1503 1504 1502 1500 1499 1499 1498 1494 1489 1489 1493 1497 1496 1494 1493 1493 1494 1495 1497 1496 1491 1486 1481 1479 1477 1474 1472 1474 1475 1473 1474 1478 1480 1480 1481 1481 1480 1480 1480 1479 1479 1478 1476
1485 1486 1488 1491 1492 1492 1492 1492 1493 1493 1493 1495 1495 1493 1492 1492 1493 1494 1494 1495 1495 1495 1496 1496 1496 1498 1499 1499 1501 1501 1499 1499 1502 1501 1500 1500 1500 1501 1502 1501 1501 1502 1501 1502 1503 1503 1504 1502 1498 1496 1495 1494 1491 1490 1491 1495 1496 1495 1495 1494 1492 1492 1492 1493 1493 1489 1486 1488 1483 1474 1474 1476 1473 1470 1468 1470 1476 1479 1479 1480 1480 1479 1479 1479 1478 1477 1476 1475
1484 1484 1484 1487 1488 1488 1489 1490 1491 1492 1493 1493 1493 1492 1491 1491 1492 1493 1494 1494 1494 1494 1495 1496 1496 1498 1499 1499 1501 1501 1500 1500 1501 1501 1500 1501 1501 1502 1501 1501 1502 1502 1501 1502 1502 1502 1503 1500 1495 1494 1494 1491 1491 1491 1492 1494 1495 1494 1494 1493 1491 1489 1488 1487 1487 1485 1486 1486 1480 1473 1474 1474 1470 1467 1468 1470 1475 1477 1478 1478 1478 1477 1476 1476 1475 1475 1474 1473
1483 1484 1484 1485 1486 1486 1487 1488 1490 1491 1492 1493 1493 1492 1491 1491 1491 1492 1494 1495 1495 1495 1495 1496 1498 1500 1501 1501 1501 1502 1501 1500 1500 1500 1501 1502 1503 1504 1502 1501 1502 1503 1502 1503 1501 1501 1503 1499 1496 1498 1497 1493 1493 1493 1492 1493 1494 1492 1491 1491 1489 1486 1483 1483 1483 1482 1482 1480 1475 1474 1473 1469 1465 1466 1468 1473 1475 1475 1475 1476 1475 1475 1475 1474 1473 1472 1471 1470
1482 1483 1483 1484 1486 1487 1488 1489 1490 1491 1492 1493 1493 1491 1491 1491 1491 1492 1494 1495 1496 1495 1494 1497 1499 1501 1502 1501 1501 1501 1500 1500 1501 1500 1502 1504 1504 1504 1505 1504 1503 1503 1503 1503 1502 1502 1503 1501 1499 1502 1502 1498 1495 1493 1493 1493 1493 1493 1492 1489 1485 1483 1482 1483 1481 1479 1479 1476 1472 1471 1469 1464 1464 1468 1470 1473 1474 1474 1474 1473 1472 1473 1473 1472 1472 1470 1469 1468
1481 1482 1482 1483 1485 1487 1488 1489 1490 1491 1492 1492 1491 1490 1490 1491 1491 1493 1494 1495 1495 1494 1494 1497 1499 1501 1501 1501 1502 1501 1500 1501 1502 1501 1502 1504 1503 1504 1505 1504 1504 1505 1504 1504 1503 1503 1504 1504 1502 1502 1504 1498 1493 1492 1493 1493 1494 1495 1492 1486 1481 1480 1480 1477 1475 1474 1473 1470 1467 1467 1464 1461 1465 1471 1472 1472 1473 1473 1472 1471 1471 1470 1470 1470 1469 1468 1467 1466
1481 1481 1482 1483 1484 1486 1488 1489 1490 1491 1490 1489 1489 1490 1491 1491 1492 1493 1494 1496 1496 1495 1496 1497 1498 1499 1500 1500 1500 1500 1499 1500 1502 1502 1502 1503 1503 1503 1504 1503 1504 1505 1504 1504 1504 1502 1503 1504 1503 1503 1503 1497 1491 1492 1494 1498 1500 1492 1482 1476 1474 1473 1472 1470 1468 1468 1465 1464 1464 1463 1462 1464 1468 1471 1471 1471 1471 1471 1470 1469 1469 1468 1468 1468 1467 1466 1465 1463